N4XWC Weather Reports


time (UTC)temp
C
wind
direction
speed
KPH
gust
KPH
rain 1hr
cm
rain 24hr
cm
rain mn
cm
humidity
%
barometer
mb
20260505233011 22 203 0.0 1.6 0.00 0.00 0.00 69 1011.7
20260505232512 22 210 1.6 3.2 0.00 0.00 0.00 69 1011.7
20260505232214 22 230 0.0 1.6 0.00 0.00 0.00 69 1011.7
20260505232011 22 186 3.2 6.4 0.00 0.00 0.00 69 1011.7
20260505231510 22 219 1.6 4.8 0.00 0.00 0.00 69 1011.7
20260505231214 22 205 3.2 3.2 0.00 0.00 0.00 69 1011.4
20260505231011 22 193 3.2 3.2 0.00 0.00 0.00 69 1011.4
20260505230512 22 217 3.2 3.2 0.00 0.00 0.00 68 1011.4
20260505230216 22 203 0.0 4.8 0.00 0.00 0.00 68 1011.4
20260505230012 22 199 3.2 6.4 0.00 0.00 0.00 68 1011.4
20260505225511 22 229 1.6 3.2 0.00 0.00 0.00 67 1011.6
20260505225215 22 219 1.6 3.2 0.00 0.00 0.00 69 1011.6
20260505225011 22 241 0.0 4.8 0.00 0.00 0.00 69 1011.6
20260505224512 22 215 0.0 1.6 0.00 0.00 0.00 68 1011.6
20260505224213 22 137 1.6 8.0 0.00 0.00 0.00 68 1011.6
20260505224012 22 243 3.2 3.2 0.00 0.00 0.00 68 1011.6
20260505223510 22 224 4.8 4.8 0.00 0.00 0.00 68 1011.6
20260505223215 22 216 1.6 4.8 0.00 0.00 0.00 69 1011.6
20260505223011 22 208 1.6 1.6 0.00 0.00 0.00 69 1011.6
20260505222512 22 246 1.6 6.4 0.00 0.00 0.00 69 1011.6
20260505222214 22 195 0.0 1.6 0.00 0.00 0.00 69 1011.6
20260505222011 22 200 0.0 0.0 0.00 0.00 0.00 69 1011.6
20260505221510 22 216 4.8 4.8 0.00 0.00 0.00 68 1011.6
20260505221215 22 227 3.2 8.0 0.00 0.00 0.00 68 1011.6
20260505221012 22 227 4.8 8.0 0.00 0.00 0.00 69 1011.6
20260505220512 22 155 0.0 3.2 0.00 0.00 0.00 68 1011.6
20260505220213 22 179 1.6 6.4 0.00 0.00 0.00 67 1011.6
20260505220010 22 205 0.0 3.2 0.00 0.00 0.00 68 1011.6
20260505215511 22 188 0.0 4.8 0.00 0.00 0.00 68 1011.7
20260505215214 22 216 0.0 4.8 0.00 0.00 0.00 68 1011.7
20260505215011 22 232 1.6 6.4 0.00 0.00 0.00 68 1011.7
20260505214512 22 192 3.2 6.4 0.00 0.00 0.00 67 1011.7
20260505214214 22 199 4.8 9.7 0.00 0.00 0.00 66 1011.8
20260505214010 22 244 1.6 4.8 0.00 0.00 0.00 66 1011.8
20260505213510 22 236 3.2 8.0 0.00 0.00 0.00 66 1011.8
20260505213214 22 230 1.6 6.4 0.00 0.00 0.00 66 1011.8
20260505213011 22 205 3.2 9.7 0.00 0.00 0.00 66 1011.8
20260505212512 22 184 6.4 8.0 0.00 0.00 0.00 67 1011.8
20260505212214 22 223 3.2 4.8 0.00 0.00 0.00 66 1011.8
20260505212011 22 200 1.6 4.8 0.00 0.00 0.00 66 1011.8
20260505211510 22 226 3.2 4.8 0.00 0.00 0.00 66 1011.8
20260505211215 22 192 0.0 1.6 0.00 0.00 0.00 66 1011.9
20260505211011 22 174 0.0 0.0 0.00 0.00 0.00 65 1011.9
20260505210510 22 277 8.0 8.0 0.00 0.00 0.00 67 1011.9
20260505210214 22 200 0.0 1.6 0.00 0.00 0.00 65 1011.9
20260505210010 22 185 4.8 8.0 0.00 0.00 0.00 66 1011.9
20260505205511 22 258 1.6 4.8 0.00 0.00 0.00 65 1012.0
20260505205213 22 223 4.8 8.0 0.00 0.00 0.00 65 1012.0
20260505205012 22 158 1.6 9.7 0.00 0.00 0.00 65 1012.0
20260505204511 22 257 4.8 4.8 0.00 0.00 0.00 63 1012.0
20260505204215 22 261 3.2 8.0 0.00 0.00 0.00 63 1011.9
20260505204012 22 175 1.6 11.3 0.00 0.00 0.00 63 1011.9
20260505203511 22 191 1.6 8.0 0.00 0.00 0.00 63 1011.9
20260505203213 22 196 1.6 3.2 0.00 0.00 0.00 63 1011.9
20260505203010 22 224 1.6 3.2 0.00 0.00 0.00 64 1011.9
20260505202511 22 184 0.0 3.2 0.00 0.00 0.00 63 1011.9
20260505202215 22 261 0.0 4.8 0.00 0.00 0.00 63 1011.9
20260505202012 22 181 1.6 9.7 0.00 0.00 0.00 63 1011.9
20260505201511 22 220 3.2 6.4 0.00 0.00 0.00 62 1011.9
20260505201214 23 158 1.6 4.8 0.00 0.00 0.00 63 1012.2
20260505201011 23 198 3.2 6.4 0.00 0.00 0.00 63 1012.2
20260505200510 23 184 4.8 9.7 0.00 0.00 0.00 63 1012.2
20260505200215 23 223 0.0 3.2 0.00 0.00 0.00 62 1012.2
20260505200012 23 257 0.0 1.6 0.00 0.00 0.00 63 1012.2
20260505195511 23 241 0.0 4.8 0.00 0.00 0.00 63 1012.5
20260505195214 23 226 3.2 8.0 0.00 0.00 0.00 61 1012.5
20260505195010 23 239 9.7 9.7 0.00 0.00 0.00 61 1012.5
20260505194511 23 184 0.0 3.2 0.00 0.00 0.00 61 1012.5
20260505194213 23 230 0.0 6.4 0.00 0.00 0.00 59 1012.5
20260505194011 23 160 3.2 9.7 0.00 0.00 0.00 59 1012.5
20260505193512 23 240 6.4 8.0 0.00 0.00 0.00 59 1012.5
20260505193215 23 195 3.2 4.8 0.00 0.00 0.00 61 1012.5
20260505193010 23 241 3.2 3.2 0.00 0.00 0.00 62 1012.5
20260505192511 22 184 1.6 8.0 0.00 0.00 0.00 63 1013.0
20260505192214 22 193 1.6 3.2 0.00 0.00 0.00 62 1013.0
20260505192011 22 223 3.2 9.7 0.00 0.00 0.00 63 1013.0
20260505191511 22 195 1.6 3.2 0.00 0.00 0.00 63 1013.0
20260505191214 22 232 9.7 9.7 0.00 0.00 0.00 62 1013.0
20260505191010 22 193 3.2 9.7 0.00 0.00 0.00 61 1013.0
20260505190512 22 164 3.2 3.2 0.00 0.00 0.00 61 1013.0
20260505190214 22 169 0.0 3.2 0.00 0.00 0.00 63 1013.0
20260505190010 22 186 4.8 8.0 0.00 0.00 0.00 63 1013.0
20260505185510 22 213 1.6 1.6 0.00 0.00 0.00 63 1013.4
20260505185215 22 256 0.0 8.0 0.00 0.00 0.00 63 1013.4
20260505185012 22 210 0.0 4.8 0.00 0.00 0.00 61 1013.4
20260505184512 22 196 9.7 9.7 0.00 0.00 0.00 61 1013.4
20260505184214 22 251 4.8 12.9 0.00 0.00 0.00 62 1013.4
20260505184010 22 229 1.6 3.2 0.00 0.00 0.00 61 1013.4
20260505183512 22 196 1.6 4.8 0.00 0.00 0.00 62 1013.4
20260505183213 22 208 3.2 3.2 0.00 0.00 0.00 62 1013.4
20260505183011 22 189 1.6 12.9 0.00 0.00 0.00 61 1013.4
20260505182511 22 239 8.0 8.0 0.00 0.00 0.00 62 1013.6
20260505182214 22 250 3.2 3.2 0.00 0.00 0.00 63 1013.6
20260505182010 22 243 1.6 12.9 0.00 0.00 0.00 62 1013.6
20260505181512 22 174 3.2 4.8 0.00 0.00 0.00 65 1013.6
20260505181213 22 171 0.0 1.6 0.00 0.00 0.00 66 1013.8
20260505181010 22 229 0.0 1.6 0.00 0.00 0.00 64 1013.8